Regional Weather Roundup
Issued by NWS Kansas City/Pleasant Hill, MO

Home | Current Version | Previous Version | Graphics & Text | Print | Product List | Glossary Off
Versions: 1 2 3 4 5 6 7 8 9 10 11 12 13 14 15 16 17 18 19 20 21 22 23 24 25 26 27 28 29 30 31 32 33 34 35 36 37 38 39 40 41 42 43 44 45 46 47 48 49 50

000
ASUS43 KEAX 310204
RWREAX

WEATHER ROUNDUP FOR EASTERN KANSAS AND NORTHWEST MISSOURI
NATIONAL WEATHER SERVICE KANSAS CITY/PLEASANT HILL MO
900 PM CDT WED JUL 30 2014

KSZ040-057-103>105-MOZ028-029-037-043-310300-
...KANSAS CITY METROPOLITAN AREA...

CITY           SKY/WX    TMP DP  RH WIND       PRES   REMARKS
K.C. INTL      PTCLDY    71  58  63 N6        30.08S
K.C. DOWNTOWN  PTCLDY    76  55  48 E3        30.06S
LEES SUMMIT    MOCLDY    70  60  70 SW3       30.08S
OLATHE - IXD   MOCLDY    69  61  75 SW5       30.09S
OLATHE - OJC   MOCLDY    70  61  73 SW3       30.08S
LAWRENCE       PTCLDY    67  60  78 NW3       30.08S

$$

MOZ001>008-011>017-020>025-030>033-038>040-044>046-053-054-310300-
...NORTHERN AND CENTRAL MISSOURI...

CITY           SKY/WX    TMP DP  RH WIND       PRES   REMARKS
ST. JOSEPH     CLEAR     68  60  75 NW3       30.08S
MOSBY          PTCLDY    70  61  73 CALM      30.07S
WHITEMAN AFB   CLEAR     69  53  56 SW2       30.07S
CLINTON        CLOUDY    66  64  94 CALM      30.07F
SEDALIA        MOCLDY    71  60  68 SW5       30.08S
WARSAW         NOT AVBL
MARSHALL       MOCLDY    72  64  78 S3        30.08R
CHILLICOTHE      N/A     69  60  73 CALM      30.08R
KIRKSVILLE     CLEAR     65  60  84 CALM      30.09R

$$

MOZ041-047>049-056>058-063>065-088>090-097-310300-
...EASTERN AND SOUTHERN MISSOURI...

CITY           SKY/WX    TMP DP  RH WIND       PRES   REMARKS
ST. LOUIS INTL MOCLDY    76  57  51 N3        30.05R
SPIRIT OF STL  MOCLDY    70  60  70 CALM      30.04R
COLUMBIA       MOCLDY    71  59  65 SW6       30.07R
JEFFERSON CITY CLOUDY    73  59  61 W5        30.05S
HANNIBAL       PTCLDY    66  59  77 CALM      30.07S
ROLLA          CLOUDY    67  61  81 CALM      30.06S
LEBANON        CLOUDY    68  59  73 CALM      30.09S
OSAGE BEACH    CLOUDY    66  63  88 CALM      30.07S
SPRINGFIELD    LGT RAIN  67  65  93 S3        30.08F
BRANSON        CLOUDY    64  64 100 CALM      30.09F
NEVADA         CLOUDY    68  66  94 CALM      30.08F
JOPLIN         CLOUDY    66  65  96 SE6       30.07F
WEST PLAINS    CLOUDY    67  65  93 W3        30.09F
MALDEN         CLOUDY    75  66  73 W5        30.06F

$$

IAZ060-094-KSZ022-034>040-054-083-096-NEZ052-066-093-310300-
...KANSAS...SOUTHEAST NEBRASKA AND IOWA...

CITY           SKY/WX    TMP DP  RH WIND       PRES   REMARKS
TOPEKA         PTCLDY    71  58  63 CALM      30.08S
MANHATTAN      CLEAR     69  58  67 CALM      30.09S
EMPORIA        PTCLDY    67  62  84 CALM      30.09F
CHANUTE        CLOUDY    68  65  90 CALM      30.09S
WICHITA        MOCLDY    68  64  87 NE8       30.10R
OMAHA          MOCLDY    73  55  53 CALM      30.10R
LINCOLN        PTCLDY    73  52  47 NE6       30.11S
FALLS CITY     CLEAR     72  56  57 CALM      30.09R
LAMONI         CLEAR     69  57  65 NW3       30.09R
DES MOINES     PTCLDY    74  55  51 NW3       30.08R

$$




USA.gov is the U.S. government's official web portal to all federal, state and local government web resources and services.